Dewpoint
61 62 63 62 62 62 62 62 63 65 65 66 67 66 65 65 65 64 63 62 63 64 65 66 68 68 68 67 67 67 68 67 67 67 67 66 66 65 65 64 63 63 63
51 53 55 56 56 56 54 56 56 58 60 62 64 65 66 66 66 66 66 66 63 63 64 65 66 68 68 67 67 67 67 67 67 67 66 66 66 65 65 65 63 62 62
46 45 43 44 44 46 45 46 48 49 51 52 54 57 60 62 65 65 66 66 66 64 64 64 65 66 68 67 68 67 67 67 67 67 66 66 65 65 64 64 63 63 63
43 41 39 41 44 43 40 41 42 41 42 43 45 48 51 53 57 60 63 65 65 65 65 64 64 65 65 67 67 68 67 66 66 66 66 66 65 64 64 63 63 62 62
43 42 39 42 45 40 38 39 38 40 40 41 42 42 43 44 46 48 52 56 60 64 64 64 63 63 64 64 65 66 67 66 65 65 65 65 65 64 64 63 62 61 61
43 43 41 43 45 41 39 40 42 41 40 40 38 37 43 43 43 43 43 45 47 54 61 63 63 64 63 63 64 65 65 66 66 65 64 65 65 64 64 63 62 61 60
44 43 43 44 44 43 43 43 42 41 39 40 39 39 41 42 43 42 43 42 41 50 58 58 58 56 54 54 61 64 65 65 65 66 65 64 65 64 63 63 62 61 60
44 42 45 44 45 44 45 45 45 45 42 39 40 40 35 35 37 41 45 46 47 47 49 52 54 52 53 53 51 52 52 57 60 62 65 65 64 64 63 62 62 61 60
42 43 44 44 45 44 44 46 46 46 43 43 43 41 38 34 41 41 40 41 43 43 44 43 42 43 46 49 53 53 52 51 51 52 53 57 64 64 63 62 62 61 60
42 43 44 45 45 44 44 44 44 45 45 43 44 41 43 43 40 37 39 40 40 39 42 41 40 41 43 45 46 49 51 50 51 51 52 52 55 58 63 62 61 61 60
38 40 43 44 44 43 43 43 43 44 43 42 41 41 41 40 41 39 36 36 38 36 37 39 39 42 42 43 45 46 49 51 51 51 52 52 51 51 54 56 62 61 60
37 39 41 43 43 43 42 42 42 42 41 42 41 41 40 38 37 36 36 36 36 39 39 40 40 41 43 43 42 41 43 46 49 50 51 52 51 51 51 53 54 59 61
35 37 40 42 42 43 43 42 42 42 42 42 42 41 40 38 38 37 36 36 36 37 39 40 40 41 41 42 42 42 43 44 46 48 49 49 51 51 52 50 50 53 57
35 37 40 41 42 42 42 43 42 42 42 42 41 41 41 40 39 38 38 37 37 36 37 37 38 37 37 39 40 40 41 42 43 44 46 49 50 50 51 50 49 51 52
36 36 38 40 40 41 42 42 41 41 41 41 42 42 42 41 42 40 40 39 37 35 34 34 33 33 36 38 39 39 42 42 43 45 46 47 47 49 49 49 49 50 51
38 38 38 39 39 40 42 42 42 41 41 41 41 41 41 41 41 40 40 39 39 37 35 34 31 34 37 37 38 38 39 40 41 42 42 43 44 45 46 47 47 49 50
38 37 36 36 36 37 37 41 41 41 40 39 40 39 39 39 38 37 38 37 38 37 35 36 36 36 37 38 37 38 39 40 41 42 43 43 44 44 44 44 45 47 48
38 37 36 35 34 35 35 36 37 39 39 38 38 38 38 37 36 37 36 36 36 36 36 35 36 36 36 36 36 37 37 37 40 40 42 42 42 41 41 43 44 45 47
38 37 36 36 35 35 35 35 35 35 37 38 38 37 37 36 35 35 34 34 34 34 35 34 34 36 35 35 35 36 36 37 39 40 40 40 40 41 41 42 44 45 46
39 39 39 39 38 37 35 35 34 34 34 34 35 36 35 35 34 33 33 33 33 34 34 33 32 32 34 35 35 35 36 37 38 37 38 38 39 40 41 42 43 45 46
35 36 37 38 38 39 41 39 37 35 35 34 35 34 35 34 34 34 33 33 33 33 33 32 31 30 31 33 34 34 34 34 35 37 37 39 41 43 44 42 44 45 45
22 25 28 30 33 35 36 37 38 39 36 33 32 31 30 32 32 33 33 33 32 32 31 30 29 29 30 31 33 33 32 32 30 34 36 37 38 37 40 42 43 45 46
22 22 22 22 24 26 28 32 35 36 37 38 34 32 30 28 30 31 33 34 33 33 33 32 30 29 29 31 31 32 31 31 30 33 34 33 36 37 40 41 42 43 45
19 19 21 20 21 21 24 28 32 34 36 37 37 33 33 31 31 31 32 32 32 33 33 32 32 32 33 33 33 32 31 32 32 33 34 32 37 39 40 40 40 43 46
19 18 18 19 21 23 24 27 29 29 32 34 38 35 35 32 31 32 32 32 31 30 30 31 31 31 32 32 33 33 31 31 29 31 35 35 36 38 38 37 41 48 46
16 17 17 20 22 23 25 27 28 28 30 31 36 37 35 32 30 32 33 31 30 29 29 30 31 31 31 32 33 34 33 30 30 30 37 35 36 36 33 37 46 47 46
Wind_Speed
10 10 9 7 10 10 9 7 9 11 12 12 14 16 17 17 20 16 14 10 14 14 17 18 21 21 20 21 21 19 19 18 19 19 19 19 19 18 18 18 17 17 16
9 7 8 8 5 8 9 11 12 12 12 10 14 15 14 15 15 15 15 14 13 16 16 17 22 22 23 23 23 22 22 22 21 21 21 22 22 22 21 21 21 20 19
9 9 7 5 6 9 10 10 10 13 13 14 16 15 14 15 16 17 15 15 15 16 20 22 22 23 23 23 24 24 25 25 24 23 23 23 23 23 23 22 22 22 22
10 10 7 6 8 10 10 11 11 13 13 15 16 16 17 16 15 16 16 16 15 15 16 23 22 23 24 25 24 25 26 27 28 27 26 25 25 25 25 25 24 23 21
11 10 9 9 10 9 10 10 11 12 14 15 16 16 15 17 17 17 18 18 18 18 17 17 23 23 24 26 26 27 28 28 29 30 29 28 28 28 27 26 26 25 23
12 12 10 10 10 11 10 10 12 12 14 15 17 18 16 16 17 17 18 18 17 17 15 17 14 15 22 23 25 27 30 29 30 32 32 31 31 30 29 27 28 27 26
12 12 11 11 10 11 12 11 12 13 13 12 15 16 17 16 16 15 16 17 17 8 7 4 3 2 4 7 7 21 27 28 30 32 34 34 33 32 32 30 30 29 28
9 9 9 9 9 10 11 11 11 10 11 11 11 14 12 13 11 13 12 7 9 14 10 11 12 10 7 1 4 7 10 10 9 12 30 35 35 36 34 34 33 32 31
9 9 9 8 8 8 7 8 7 9 11 12 10 7 8 8 17 8 8 11 11 11 11 12 13 13 12 11 8 9 6 9 8 9 15 16 29 37 36 37 36 35 35
5 7 8 9 7 8 9 6 6 9 8 11 13 11 12 14 10 11 9 11 10 12 11 10 11 12 12 11 11 7 9 8 10 9 13 13 17 18 29 42 40 39 38
9 8 8 11 9 10 9 10 10 8 9 12 11 12 12 12 14 15 17 13 10 9 8 9 11 11 12 11 11 12 10 12 11 12 12 14 17 22 21 19 39 43 42
11 10 11 10 11 11 11 11 10 11 11 11 13 13 12 13 14 15 16 16 16 13 14 13 12 12 12 11 14 12 10 12 12 14 16 17 19 22 22 17 32 24 45
11 11 11 12 12 11 10 12 13 12 13 13 13 14 14 15 15 15 17 17 18 18 13 14 14 14 13 12 12 10 10 12 14 15 17 19 21 21 22 21 20 33 29
13 13 14 15 14 14 14 13 14 14 14 14 15 16 17 17 16 16 15 16 20 20 18 20 14 12 12 12 9 14 16 18 19 21 22 23 23 24 22 22 25 26 33
12 14 15 16 17 17 15 15 14 15 14 14 14 17 16 17 17 16 17 17 19 21 21 17 15 8 10 9 11 14 17 21 23 22 21 22 24 25 25 24 27 30 30
15 16 17 18 19 18 17 17 16 16 16 15 14 17 18 16 17 14 16 17 18 20 23 17 16 13 14 15 15 16 19 23 25 28 28 29 29 31 31 27 29 31 33
17 18 19 20 20 21 18 15 17 18 19 18 18 20 20 17 17 16 16 17 15 17 23 21 19 16 17 17 18 18 18 20 20 23 25 22 23 23 27 33 32 36 38
20 21 22 22 21 21 20 20 21 19 19 19 20 20 21 18 18 17 14 17 17 18 20 26 19 19 20 18 20 21 20 21 21 23 26 27 32 37 40 38 38 38 41
22 24 24 24 24 23 23 22 22 23 22 21 21 21 21 20 21 17 13 17 16 16 17 21 20 17 18 18 20 19 19 20 21 23 28 29 33 36 39 42 40 39 42
21 21 23 26 26 27 28 26 26 24 24 23 22 19 20 20 21 19 16 19 18 18 17 19 22 18 16 16 16 18 20 17 20 21 25 31 36 37 39 41 41 41 44
20 21 24 23 22 22 23 26 28 26 23 24 22 22 21 22 24 22 17 16 16 17 16 17 21 19 17 15 16 14 19 20 23 22 27 25 22 22 22 33 37 43 46
25 25 23 24 26 25 25 30 26 25 30 26 26 25 23 19 18 21 25 27 23 20 20 19 20 22 21 18 16 16 19 20 29 12 19 25 23 32 30 29 37 42 46
25 26 27 28 28 27 26 30 30 24 24 30 28 25 24 20 14 19 21 27 28 27 25 21 25 24 23 20 19 19 20 22 28 29 26 34 27 33 31 32 45 47 49
25 26 25 27 27 26 25 28 28 30 31 29 32 27 27 22 17 19 18 18 17 18 19 19 22 23 22 18 18 19 24 28 30 31 23 31 29 32 30 34 48 56 56
25 25 27 28 28 29 29 29 29 30 30 30 31 29 25 23 18 17 17 18 18 18 14 19 23 26 26 25 25 22 22 21 28 31 19 23 26 27 30 39 36 40 46
27 27 29 29 30 30 31 31 30 29 30 28 29 28 25 20 13 13 16 16 19 17 15 14 13 14 17 18 21 20 19 22 22 24 4 8 22 22 17 19 24 23 31
Wind_Direction
8 12 357 359 351 357 310 292 287 293 294 300 291 281 273 265 261 262 264 203 193 204 204 218 231 228 217 216 219 209 212 214 214 212 211 211 211 213 211 208 203 200 198
17 360 9 354 351 345 338 313 313 309 299 280 278 273 287 273 262 265 261 258 208 210 217 225 233 235 231 224 220 211 213 215 216 217 216 215 212 214 215 214 207 205 203
3 350 357 342 344 323 308 302 302 293 286 282 275 268 269 276 275 271 262 253 254 238 232 227 232 236 237 234 227 219 214 214 216 218 216 218 216 215 214 214 209 208 208
11 344 334 330 349 315 316 310 308 302 296 291 289 287 283 273 259 264 264 261 260 254 240 236 232 233 237 238 236 229 224 221 216 216 216 214 216 217 214 212 206 204 205
3 347 332 334 335 315 311 306 301 304 299 291 287 282 280 278 280 274 262 258 258 250 253 232 227 231 230 236 240 241 237 231 221 218 217 213 215 216 215 212 205 202 206
359 347 336 339 327 322 316 320 315 303 299 293 290 290 292 286 282 278 274 269 263 261 243 256 246 233 233 231 236 241 245 244 234 224 220 216 213 213 213 212 206 204 203
359 352 343 338 335 326 324 308 302 302 295 298 297 289 277 264 253 260 269 272 264 266 304 305 294 304 81 53 296 262 250 250 245 239 226 218 214 213 212 210 208 204 201
356 342 346 340 344 331 331 332 324 321 306 294 303 304 296 291 251 230 256 287 295 281 248 242 245 255 259 220 228 264 294 302 295 352 245 227 218 213 213 211 208 205 203
333 331 333 332 336 316 324 316 326 320 316 317 305 287 311 294 350 297 267 260 288 293 285 304 301 288 279 260 229 216 215 255 289 296 309 323 236 216 215 213 211 207 204
287 297 303 305 330 315 320 318 310 304 296 299 299 274 261 285 296 305 312 317 289 268 262 274 285 287 286 284 275 251 219 251 261 282 291 294 300 306 244 214 214 210 207
315 308 308 320 316 314 315 300 303 286 278 274 284 297 302 289 272 268 286 280 287 269 294 294 291 294 291 283 280 279 229 214 234 256 277 285 283 277 303 321 226 212 210
316 311 307 304 305 298 298 306 308 295 289 293 289 284 278 274 283 288 287 289 287 292 300 297 291 286 281 292 294 292 274 254 242 254 263 270 275 276 268 295 274 279 209
307 304 296 288 291 295 297 294 294 293 291 285 290 289 285 278 279 278 278 280 288 288 286 289 279 266 263 266 274 305 325 299 282 268 262 266 272 276 274 288 291 269 288
298 301 296 291 282 282 279 277 282 285 285 285 281 276 279 277 274 269 264 269 275 278 274 274 254 255 266 257 300 324 300 285 275 272 271 262 257 264 266 274 277 275 260
291 290 291 286 284 287 291 288 284 283 288 282 281 280 281 282 281 277 275 270 272 276 275 278 273 263 274 292 299 306 303 300 306 297 276 270 269 260 260 263 267 268 264
290 290 290 286 282 267 260 260 268 267 266 263 260 264 264 261 274 292 279 273 269 269 274 273 278 298 295 288 289 303 292 292 281 274 272 267 261 263 267 256 254 258 259
292 290 289 287 284 282 276 258 259 264 264 267 263 260 262 262 260 265 279 283 279 270 267 271 274 280 286 290 290 291 295 293 287 282 287 290 287 272 268 271 259 253 253
289 291 290 286 284 281 277 270 266 265 264 266 269 271 270 264 255 241 239 251 256 258 265 273 274 282 285 294 294 294 293 293 289 289 286 295 293 293 284 272 261 246 245
291 287 284 282 281 280 279 275 275 270 255 253 256 260 265 264 260 259 249 253 252 257 263 271 277 282 282 289 295 294 293 297 284 282 281 278 272 268 271 272 262 247 239
320 311 304 296 290 283 275 271 269 266 266 265 266 258 262 265 267 263 249 254 258 259 262 268 277 281 280 283 281 286 289 287 292 289 283 267 270 269 269 267 262 246 237
311 313 313 311 307 306 299 294 287 266 257 259 260 252 245 247 250 254 258 254 253 254 261 263 272 278 280 282 280 288 287 292 285 281 279 274 275 273 274 280 266 249 234
317 313 305 302 307 305 295 288 289 291 284 271 270 267 262 251 246 248 248 248 253 260 261 262 271 273 278 282 288 292 297 298 300 283 283 290 291 284 278 272 262 249 233
319 316 313 314 310 304 299 306 305 296 284 276 266 265 263 255 242 252 246 236 241 244 245 257 268 268 277 280 291 293 287 282 281 284 289 287 286 279 276 274 266 248 241
313 310 307 304 301 305 306 301 301 296 288 274 268 262 263 254 242 254 253 249 245 244 239 239 246 260 267 274 277 282 287 284 281 279 276 276 284 275 278 279 270 255 237
315 312 310 310 311 308 310 305 297 296 287 280 267 259 258 251 239 239 244 252 255 259 259 255 258 263 270 276 273 279 278 278 283 285 283 278 279 282 292 289 280 229 207
315 313 313 312 309 307 307 310 311 309 288 284 267 248 246 245 229 217 230 252 261 261 265 269 277 279 278 275 271 264 270 273 282 294 279 285 299 301 301 291 302 196 196